Back to catalog

COSMOS 2251 DEB

AliveLEO
NORAD 46271·DEBRIS·🇷🇺 Russia

Launched Jun 16, 1993 from Plesetsk Cosmodrome

Loading…

Next Passes (next 24 hours)

TLE

FreshSource: Space-Track

Epoch: Sep 13, 2026, 18:53 UTC

1 46271U 93036BWT 26256.78705536  .00000550  00000-0  14205-3 0  9998
2 46271  74.0442 280.5920 0040967 328.8619  31.0115 14.51955886886333

Track COSMOS 2251 DEB in real time with AllMySat

Download on the App Store